TURKMENALEM52E/MONACOSAT

Last updated on Tue Sep 22 2026 00:03:13 GMT+0000 (Coordinated Universal Time)

1 40617U 15023A 26264.42805707 .00000100 00000+0 00000+0 0 9991 2 40617 0.0161 113.2108 0003045 62.1967 31.0366 1.00271198 41819
UTC large
Height (km)
Speed (km/s)
/
Latitude / Longitude
Inclination (degrees)
Orbital Period (minutes)
Azimuth
Elevation
Range (km)
Doppler Factor

Next 0 passes for location: London (51.5072 / 0.1276)

No passes found over London.
TURKMENALEM52E/MONACOSAT